Rochester/St. Mary\'s Hospita, MN

7:17 AM CST on December 16, 2019 (GMT -0600)
Rochester/St. Mary\'s Hospita

Weather History for K9MN - October, 2019

Change the Weather History Date:

Saturday, October 5, 2019

  Actual Average (WUND) Record (WUND)
Temperature  
Mean Temperature 50 °F -  
Max Temperature 54 °F - - (-1)
Min Temperature 45 °F - - (-1)
Degree Days  
Heating Degree Days 16    
Moisture  
Dew Point 47 °F    
Average Humidity 91    
Maximum Humidity 100    
Minimum Humidity 73    
Precipitation  
Precipitation 0.93 in - - ()
Sea Level Pressure  
Sea Level Pressure 29.91 in    
Wind  
Wind Speed 12 mph (SSE)    
Max Wind Speed 20 mph    
Max Gust Speed 39 mph    
Visibility 8 miles    
Events      
Averages and records for this station are not official NWS values.
T = Trace of Precipitation, MM = Missing Value Source: NWS Daily Summary

Daily Weather History Graph

Daily Weather History Graph

Search for Another Location

Airport or City:

Astronomy

Oct. 05, 2019 Rise Set
Actual Time 7:12 AM CDT 6:43 PM CDT
Civil Twilight 6:43 AM CDT 7:12 PM CDT
Nautical Twilight 6:09 AM CDT 7:46 PM CDT
Astronomical Twilight 5:36 AM CDT 8:19 PM CDT
Moon 2:49 PM CDT (10/5) 11:56 PM CDT (10/5)
Length of Visible Light 12h 29m
Length of Day
11h 31m
Waxing Crescent, 50% of the Moon is Illuminated
Oct 5
Waxing Crescent
Oct 13
Full
Oct 21
Last Quarter
Oct 27
New
Nov 4
First Quarter

Hourly Weather History & Observations

Time (CDT) Temp. Windchill Dew Point Humidity Pressure Visibility Wind Dir Wind Speed Gust Speed Precip Events Conditions
12:15 AM 45.7 °F 40.6 °F 43.3 °F 92% 30.19 in 10.0 mi ESE 10.4 mph 16.1 mph N/A   Overcast
12:16 AM 45.7 °F 40.2 °F 43.3 °F 92% 30.19 in 10.0 mi ESE 11.5 mph 16.1 mph N/A   Overcast
12:35 AM 45.9 °F 40.4 °F 43.2 °F 90% 30.17 in 10.0 mi ESE 11.5 mph 18.4 mph N/A   Overcast
12:55 AM 46.0 °F 39.9 °F 43.0 °F 89% 30.18 in 10.0 mi ESE 13.8 mph 19.6 mph N/A   Scattered Clouds
1:15 AM 46.4 °F 40.4 °F 43.0 °F 88% 30.17 in 10.0 mi ESE 13.8 mph - N/A   Mostly Cloudy
1:35 AM 46.4 °F 40.7 °F 43.2 °F 88% 30.16 in 10.0 mi ESE 12.7 mph 19.6 mph N/A   Overcast
1:36 AM 46.4 °F 40.1 °F 43.2 °F 88% 30.16 in 10.0 mi ESE 15.0 mph 19.6 mph N/A   Overcast
1:55 AM 46.8 °F - 43.7 °F 89% 30.16 in 10.0 mi ESE 9.2 mph 18.4 mph N/A   Overcast
2:15 AM 46.9 °F - 43.9 °F 89% 30.15 in 10.0 mi ESE 9.2 mph 16.1 mph N/A   Overcast
2:35 AM 47.3 °F - 44.4 °F 90% 30.14 in 10.0 mi ESE 9.2 mph 16.1 mph N/A   Overcast
2:36 AM 47.3 °F - 44.4 °F 90% 30.14 in 10.0 mi ESE 10.4 mph 16.1 mph N/A   Overcast
2:55 AM 47.7 °F - 44.4 °F 89% 30.13 in 10.0 mi ESE 13.8 mph 19.6 mph N/A   Overcast
2:56 AM 47.7 °F - 44.4 °F 89% 30.13 in 10.0 mi ESE 12.7 mph 19.6 mph N/A   Overcast
3:15 AM 48.2 °F - 44.6 °F 87% 30.11 in 10.0 mi ESE 11.5 mph 21.9 mph N/A   Overcast
3:35 AM 48.2 °F - 44.6 °F 87% 30.11 in 10.0 mi ESE 11.5 mph 16.1 mph N/A   Overcast
3:55 AM 48.2 °F - 44.2 °F 86% 30.10 in 10.0 mi ESE 15.0 mph 20.7 mph N/A   Overcast
3:56 AM 48.2 °F - 44.2 °F 86% 30.10 in 10.0 mi ESE 13.8 mph 20.7 mph N/A   Overcast
4:15 AM 48.4 °F - 44.6 °F 87% 30.08 in 10.0 mi ESE 13.8 mph 20.7 mph N/A   Overcast
4:35 AM 47.7 °F - 45.1 °F 91% 30.06 in 10.0 mi ESE 16.1 mph 23.0 mph N/A   Overcast
4:55 AM 47.5 °F - 45.7 °F 93% 30.07 in 10.0 mi SE 16.1 mph 21.9 mph 0.01 in   Overcast
5:15 AM 47.3 °F - 46.0 °F 95% 30.07 in 5.0 mi SE 13.8 mph 21.9 mph 0.05 in   Overcast
5:16 AM 47.3 °F - 46.0 °F 95% 30.06 in 5.0 mi SE 13.8 mph 21.9 mph 0.05 in   Overcast
5:35 AM 47.1 °F - 46.6 °F 98% 30.05 in 7.0 mi SE 16.1 mph 23.0 mph 0.09 in   Overcast
5:55 AM 46.8 °F - 46.6 °F 99% 30.00 in 5.0 mi ESE 16.1 mph 27.6 mph 0.15 in   Overcast
6:15 AM 46.6 °F - 46.8 °F 100% 29.98 in 7.0 mi SE 15.0 mph 27.6 mph 0.03 in   Overcast
6:16 AM 46.6 °F - 46.8 °F 100% 29.98 in 10.0 mi ESE 12.7 mph 27.6 mph 0.03 in   Overcast
6:35 AM 46.6 °F - 46.8 °F 100% 29.97 in 10.0 mi SE 19.6 mph 27.6 mph 0.03 in   Overcast
6:36 AM 46.6 °F - 46.8 °F 100% 29.97 in 10.0 mi ESE 17.3 mph 27.6 mph 0.03 in   Overcast
6:55 AM 46.8 °F - 46.9 °F 100% 29.97 in 10.0 mi SE 12.7 mph 20.7 mph 0.04 in   Overcast
7:15 AM 46.8 °F - 46.9 °F 100% 29.93 in 10.0 mi ESE 17.3 mph 25.3 mph N/A   Overcast
7:35 AM - - - N/A% 29.94 in 10.0 mi ESE 11.5 mph 24.2 mph N/A   Overcast
7:55 AM 47.5 °F - 47.7 °F 100% 30.01 in 10.0 mi WNW 8.1 mph - N/A   Overcast
7:56 AM 47.7 °F - 47.7 °F 100% 30.01 in 10.0 mi WNW 6.9 mph - N/A   Overcast
8:15 AM 47.8 °F - 47.7 °F 99% 29.99 in 3.0 mi NNE 4.6 mph - 0.05 in   Overcast
8:16 AM 47.8 °F - 47.7 °F 99% 29.99 in 3.0 mi North 4.6 mph - 0.06 in   Overcast
8:35 AM 48.0 °F - 48.2 °F 100% 29.98 in 2.5 mi East 9.2 mph - 0.18 in   Overcast
8:55 AM 47.8 °F - 47.8 °F 100% 29.97 in 7.0 mi ENE 4.6 mph - 0.21 in   Overcast
9:15 AM 48.0 °F - 48.2 °F 100% 29.97 in 1.8 mi East 3.5 mph - 0.07 in   Overcast
9:16 AM 47.8 °F - 48.2 °F 100% 29.97 in 1.8 mi ENE 3.5 mph - 0.07 in   Overcast
9:35 AM 47.5 °F - 47.7 °F 100% 29.96 in 3.0 mi ESE 9.2 mph - 0.19 in   Overcast
9:55 AM 47.3 °F - 47.5 °F 100% 29.92 in 3.0 mi ESE 11.5 mph 16.1 mph 0.28 in   Overcast
10:15 AM 47.3 °F - 47.3 °F 100% 29.90 in 4.0 mi ESE 11.5 mph 17.3 mph 0.07 in   Overcast
10:16 AM 47.3 °F - 47.3 °F 100% 29.90 in 4.0 mi ESE 11.5 mph 17.3 mph 0.07 in   Overcast
10:35 AM 47.3 °F - 47.5 °F 100% 29.88 in 5.0 mi ESE 13.8 mph 21.9 mph 0.14 in   Overcast
10:55 AM 47.5 °F - 47.7 °F 100% 29.86 in 7.0 mi ESE 15.0 mph 19.6 mph 0.16 in   Overcast
11:15 AM 48.0 °F - 48.2 °F 100% 29.84 in 4.0 mi ESE 15.0 mph 24.2 mph 0.04 in   Overcast
11:35 AM 48.2 °F - 48.4 °F 100% 29.84 in 10.0 mi ESE 18.4 mph 27.6 mph 0.05 in   Overcast
11:36 AM 48.2 °F - 48.4 °F 100% 29.84 in 10.0 mi ESE 17.3 mph 25.3 mph 0.05 in   Overcast
11:55 AM - - - N/A% 29.83 in 5.0 mi SE 12.7 mph 26.5 mph 0.05 in   Overcast
11:56 AM - - - N/A% 29.83 in 5.0 mi SE 13.8 mph 25.3 mph 0.05 in   Overcast
12:15 PM 49.1 °F - 49.3 °F 100% 29.84 in 2.5 mi SE 13.8 mph 17.3 mph 0.01 in   Overcast
12:35 PM 49.6 °F - 49.6 °F 100% 29.82 in 3.0 mi SE 13.8 mph 19.6 mph 0.02 in   Overcast
12:55 PM 50.0 °F - 50.2 °F 100% 29.80 in 3.0 mi SSE 12.7 mph 20.7 mph 0.02 in   Overcast
12:56 PM 50.0 °F - 50.2 °F 100% 29.80 in 3.0 mi SE 13.8 mph 20.7 mph 0.02 in   Overcast
1:15 PM 50.4 °F - 50.5 °F 100% 29.80 in 4.0 mi SSE 10.4 mph 23.0 mph N/A   Overcast
1:35 PM - - - N/A% 29.78 in 2.5 mi SSE 12.7 mph 19.6 mph N/A   Overcast
1:55 PM 50.9 °F - 51.1 °F 100% 29.78 in 3.0 mi SSE 16.1 mph 23.0 mph N/A   Overcast
1:56 PM 50.9 °F - 51.1 °F 100% 29.77 in 3.0 mi SSE 13.8 mph 23.0 mph N/A   Overcast
2:15 PM 51.4 °F - 51.8 °F 100% 29.76 in 4.0 mi SSE 11.5 mph 19.6 mph N/A   Overcast
2:16 PM 51.4 °F - 51.8 °F 100% 29.76 in 4.0 mi SSE 12.7 mph 20.7 mph N/A   Overcast
2:35 PM 51.8 °F - 51.8 °F 100% 29.77 in 3.0 mi South 11.5 mph 19.6 mph N/A   Overcast
2:55 PM 51.8 °F - 51.8 °F 100% 29.76 in 5.0 mi SSE 10.4 mph 23.0 mph 0.01 in   Overcast
3:15 PM 51.8 °F - 51.8 °F 100% 29.75 in 10.0 mi South 13.8 mph 23.0 mph N/A   Overcast
3:16 PM 51.8 °F - 51.8 °F 100% 29.75 in 10.0 mi South 11.5 mph 23.0 mph N/A   Overcast
3:35 PM 52.0 °F - 52.2 °F 100% 29.74 in 7.0 mi South 13.8 mph 23.0 mph N/A   Overcast
3:36 PM 52.0 °F - 52.2 °F 100% 29.74 in 7.0 mi South 12.7 mph 19.6 mph N/A   Overcast
3:55 PM 52.3 °F - 52.3 °F 100% 29.75 in 10.0 mi South 11.5 mph 19.6 mph N/A   Overcast
4:15 PM 52.7 °F - 52.7 °F 100% 29.74 in 10.0 mi South 13.8 mph 17.3 mph N/A   Overcast
4:35 PM 52.7 °F - 52.9 °F 100% 29.75 in 7.0 mi South 10.4 mph 19.6 mph N/A   Overcast
4:36 PM 52.7 °F - 52.9 °F 100% 29.75 in 7.0 mi SSW 11.5 mph 19.6 mph N/A   Overcast
4:55 PM 53.6 °F - 53.6 °F 100% 29.75 in 10.0 mi South 11.5 mph 19.6 mph N/A   Overcast
5:15 PM 54.0 °F - 54.1 °F 100% 29.75 in 10.0 mi South 10.4 mph 17.3 mph N/A   Overcast
5:35 PM 54.5 °F - 54.5 °F 100% 29.75 in 10.0 mi South 8.1 mph - N/A   Overcast
5:36 PM 54.5 °F - 54.5 °F 100% 29.75 in 10.0 mi South 8.1 mph - N/A   Overcast
5:55 PM 54.7 °F - 54.7 °F 100% 29.77 in 10.0 mi WSW 13.8 mph 39.1 mph N/A   Overcast
5:56 PM 54.7 °F - 54.5 °F 99% 29.77 in 10.0 mi WSW 12.7 mph 39.1 mph N/A   Overcast
6:15 PM 54.9 °F - 51.1 °F 87% 29.78 in 10.0 mi West 13.8 mph 28.8 mph N/A   Overcast
6:35 PM 54.3 °F - 49.1 °F 83% 29.79 in 10.0 mi West 10.4 mph 28.8 mph N/A   Overcast
6:55 PM 54.1 °F - 48.2 °F 80% 29.79 in 10.0 mi WSW 12.7 mph 24.2 mph N/A   Overcast
6:56 PM 54.1 °F - 48.2 °F 80% 29.79 in 10.0 mi WSW 11.5 mph 24.2 mph N/A   Overcast
7:15 PM 54.0 °F - 46.9 °F 77% 29.80 in 10.0 mi WSW 12.7 mph 19.6 mph N/A   Overcast
7:35 PM 53.6 °F - 46.6 °F 77% 29.80 in 10.0 mi WSW 17.3 mph 26.5 mph N/A   Overcast
7:55 PM 53.6 °F - 45.9 °F 75% 29.80 in 10.0 mi WSW 16.1 mph 23.0 mph N/A   Overcast
7:56 PM 53.6 °F - 45.7 °F 75% 29.80 in 10.0 mi WSW 15.0 mph 23.0 mph N/A   Overcast
8:15 PM 53.6 °F - 45.0 °F 73% 29.81 in 10.0 mi West 11.5 mph 26.5 mph N/A   Overcast
8:16 PM 53.6 °F - 45.0 °F 73% 29.81 in 10.0 mi WSW 11.5 mph 26.5 mph N/A   Overcast
8:35 PM 53.1 °F - 44.8 °F 73% 29.82 in 10.0 mi West 12.7 mph 25.3 mph N/A   Mostly Cloudy
8:55 PM 52.7 °F - 44.8 °F 74% 29.83 in 10.0 mi West 13.8 mph 23.0 mph N/A   Scattered Clouds
9:15 PM 52.2 °F - 44.8 °F 76% 29.84 in 10.0 mi West 13.8 mph 26.5 mph N/A   Mostly Cloudy
9:16 PM 52.2 °F - 44.8 °F 76% 29.84 in 10.0 mi West 10.4 mph 26.5 mph N/A   Mostly Cloudy
9:35 PM 52.0 °F - 44.6 °F 76% 29.84 in 10.0 mi WSW 13.8 mph 23.0 mph N/A   Mostly Cloudy
9:55 PM 51.8 °F - 43.9 °F 74% 29.85 in 10.0 mi West 15.0 mph 21.9 mph N/A   Mostly Cloudy
10:15 PM 51.4 °F - 43.5 °F 74% 29.87 in 10.0 mi WSW 12.7 mph 24.2 mph N/A   Scattered Clouds
10:16 PM 51.4 °F - 43.7 °F 75% 29.87 in 10.0 mi West 13.8 mph 24.2 mph N/A   Scattered Clouds
10:35 PM 50.9 °F - 43.5 °F 76% 29.87 in 7.0 mi West 11.5 mph 20.7 mph N/A   Mostly Cloudy
10:36 PM 50.9 °F - 43.5 °F 76% 29.87 in 7.0 mi West 11.5 mph 20.7 mph N/A   Mostly Cloudy
10:55 PM 50.4 °F - 43.7 °F 78% 29.89 in 10.0 mi WSW 11.5 mph 20.7 mph N/A   Mostly Cloudy
11:15 PM 50.0 °F - 43.7 °F 79% 29.89 in 10.0 mi West 12.7 mph 24.2 mph N/A   Scattered Clouds
11:35 PM 50.0 °F - 43.3 °F 78% 29.90 in 10.0 mi West 11.5 mph 20.7 mph N/A   Clear
11:36 PM 50.0 °F - 43.3 °F 78% 29.90 in 10.0 mi West 13.8 mph 20.7 mph N/A   Clear
11:55 PM 49.5 °F - 43.2 °F 79% 29.90 in 10.0 mi WSW 13.8 mph 18.4 mph N/A   Clear
11:56 PM 49.5 °F - 43.2 °F 79% 29.90 in 10.0 mi WSW 12.7 mph 18.4 mph N/A   Clear